Location: *
(48.7358°N, 0.3111°E)
Time: 01:59:47
(UTC+00:00)

SJ-6F - Pass Details

Date: 22 October 2019
Orbit: 571 x 594 km, 97.7° (Epoch: 18 November)

Event Time Altitude Azimuth Distance (km) Brightness Sun altitude
Rises 04:30:44 0° 13° (NNE) 2,831 8.2 -20.1°
Reaches altitude 10° 04:32:54 10° 14° (NNE) 1,922 7.3 -19.8°
Maximum altitude 04:37:05 89° 104° (ESE) 591 4.4 -19.1°
Drops below altitude 10° 04:41:12 10° 195° (SSW) 1,891 6.9 -18.4°
Enters shadow 04:42:21 - 195° (SSW) 2,374 7.4 -18.2°
